Crookston, MN

6:57 AM CST on January 22, 2018 (GMT -0600)
Crookston Municipal-Kirkwood

Weather History for KCKN - September, 2013

Change the Weather History Date:

Sunday, September 15, 2013

  Actual Average Record
Temperature  
Mean Temperature 54 °F -  
Max Temperature 64 °F 68 °F 86 °F (2006)
Min Temperature 44 °F 45 °F 28 °F (2011)
Degree Days  
Heating Degree Days 11    
Growing Degree Days 4 (Base 50)    
Moisture  
Dew Point 44 °F    
Average Humidity 71    
Maximum Humidity 100    
Minimum Humidity 40    
Precipitation  
Precipitation 0.00 in - - ()
Sea Level Pressure  
Sea Level Pressure 30.22 in    
Wind  
Wind Speed 9 mph (NE)    
Max Wind Speed 12 mph    
Max Gust Speed 16 mph    
Visibility 10 miles    
Events      
Averages and records for this station are not official NWS values.
T = Trace of Precipitation, MM = Missing Value Source: NWS Daily Summary

Daily Weather History Graph

Daily Weather History Graph

Search for Another Location

Airport or City:

Trip Planner

Search our weather history database for the weather conditions in past years. The results will help you decide how hot, cold, wet, or windy it might be!

Date:

Astronomy

Sep. 15, 2013 Rise Set
Actual Time 7:04 AM CDT 7:38 PM CDT
Civil Twilight 6:32 AM CDT 8:09 PM CDT
Nautical Twilight 5:55 AM CDT 8:46 PM CDT
Astronomical Twilight 5:17 AM CDT 9:24 PM CDT
Moon 5:18 PM CDT (9/15) 2:28 AM CDT (9/15)
Length of Visible Light 13h 36m
Length of Day
12h 34m
Waxing Gibbous, 82% of the Moon is Illuminated
Sep 15
Waxing Gibbous
Sep 19
Full
Sep 26
Last Quarter
Oct 4
New
Oct 11
First Quarter

Hourly Weather History & Observations

Time (CDT) Temp. Windchill Dew Point Humidity Pressure Visibility Wind Dir Wind Speed Gust Speed Precip Events Conditions
12:14 AM 55.4 °F - 55.4 °F 100% 29.99 in 10.0 mi North 10.4 mph 16.1 mph N/A   Overcast
12:35 AM 55.4 °F - 55.4 °F 100% 30.00 in 10.0 mi North 11.5 mph - N/A   Overcast
12:54 AM 55.4 °F - 53.6 °F 94% 30.01 in 10.0 mi North 10.4 mph - N/A   Overcast
1:14 AM 55.4 °F - 53.6 °F 94% 30.01 in 10.0 mi North 9.2 mph - N/A   Overcast
1:35 AM 55.4 °F - 51.8 °F 88% 30.01 in 10.0 mi North 8.1 mph - N/A   Overcast
1:54 AM 55.4 °F - 51.8 °F 88% 30.02 in 10.0 mi North 10.4 mph - N/A   Overcast
2:14 AM 53.6 °F - 51.8 °F 94% 30.03 in 10.0 mi North 10.4 mph - N/A   Mostly Cloudy
2:35 AM 51.8 °F - 50.0 °F 94% 30.03 in 10.0 mi North 9.2 mph - N/A   Scattered Clouds
2:54 AM 51.8 °F - 50.0 °F 94% 30.04 in 10.0 mi North 9.2 mph - N/A   Clear
3:14 AM 51.8 °F - 48.2 °F 88% 30.04 in 10.0 mi North 10.4 mph - N/A   Clear
3:35 AM 50.0 °F - 48.2 °F 94% 30.06 in 10.0 mi North 10.4 mph - N/A   Clear
3:54 AM 50.0 °F - 48.2 °F 94% 30.06 in 10.0 mi North 10.4 mph - N/A   Clear
4:14 AM 48.2 °F - 48.2 °F 100% 30.07 in 10.0 mi North 10.4 mph - N/A   Clear
4:35 AM 48.2 °F - 46.4 °F 93% 30.08 in 10.0 mi North 9.2 mph - N/A   Clear
4:54 AM 48.2 °F - 46.4 °F 93% 30.09 in 10.0 mi North 8.1 mph - N/A   Clear
5:14 AM 48.2 °F - 46.4 °F 93% 30.10 in 10.0 mi North 9.2 mph - N/A   Clear
5:35 AM 48.2 °F - 46.4 °F 93% 30.11 in 10.0 mi North 8.1 mph - N/A   Clear
5:54 AM 46.4 °F 41.9 °F 46.4 °F 100% 30.12 in 10.0 mi North 9.2 mph - N/A   Clear
6:14 AM 46.4 °F 42.4 °F 46.4 °F 100% 30.13 in 10.0 mi North 8.1 mph - N/A   Clear
6:35 AM 46.4 °F 41.9 °F 44.6 °F 93% 30.15 in 10.0 mi North 9.2 mph - N/A   Clear
6:54 AM 46.4 °F 42.9 °F 44.6 °F 93% 30.16 in 10.0 mi North 6.9 mph - N/A   Clear
7:15 AM 46.4 °F 42.9 °F 44.6 °F 93% 30.17 in 10.0 mi NNE 6.9 mph - N/A   Clear
7:35 AM 44.6 °F 40.7 °F 42.8 °F 93% 30.18 in 10.0 mi North 6.9 mph - N/A   Clear
7:54 AM 44.6 °F 41.4 °F 42.8 °F 93% 30.20 in 10.0 mi NNE 5.8 mph - N/A   Scattered Clouds
8:15 AM 46.4 °F 42.9 °F 44.6 °F 93% 30.21 in 10.0 mi NNE 6.9 mph - N/A   Scattered Clouds
8:35 AM 46.4 °F 42.9 °F 44.6 °F 93% 30.21 in 10.0 mi NNE 6.9 mph - N/A   Overcast
8:54 AM 48.2 °F - 46.4 °F 93% 30.22 in 10.0 mi NE 8.1 mph - N/A   Mostly Cloudy
9:15 AM 48.2 °F - 46.4 °F 93% 30.23 in 10.0 mi NE 11.5 mph - N/A   Mostly Cloudy
9:34 AM 48.2 °F - 46.4 °F 93% 30.24 in 10.0 mi NE 8.1 mph - N/A   Scattered Clouds
9:55 AM 50.0 °F - 46.4 °F 87% 30.25 in 10.0 mi NNE 9.2 mph - N/A   Mostly Cloudy
10:15 AM 51.8 °F - 46.4 °F 82% 30.26 in 10.0 mi NNE 9.2 mph - N/A   Overcast
10:34 AM 51.8 °F - 46.4 °F 82% 30.27 in 10.0 mi ENE 6.9 mph 10.4 mph N/A   Overcast
10:55 AM 51.8 °F - 44.6 °F 76% 30.27 in 10.0 mi NE 6.9 mph - N/A   Overcast
11:15 AM 53.6 °F - 44.6 °F 72% 30.28 in 10.0 mi NE 8.1 mph - N/A   Mostly Cloudy
11:34 AM 53.6 °F - 44.6 °F 72% 30.29 in 10.0 mi NE 6.9 mph - N/A   Scattered Clouds
11:55 AM 55.4 °F - 44.6 °F 67% 30.29 in 10.0 mi NNE 10.4 mph - N/A   Mostly Cloudy
12:15 PM 57.2 °F - 42.8 °F 59% 30.29 in 10.0 mi NNE 9.2 mph - N/A   Scattered Clouds
12:34 PM 57.2 °F - 42.8 °F 59% 30.30 in 10.0 mi NNE 9.2 mph 16.1 mph N/A   Clear
12:55 PM 59.0 °F - 42.8 °F 55% 30.30 in 10.0 mi NNE 11.5 mph 16.1 mph N/A   Clear
1:14 PM 59.0 °F - 42.8 °F 55% 30.30 in 10.0 mi NNE 10.4 mph - N/A   Clear
1:34 PM 59.0 °F - 42.8 °F 55% 30.30 in 10.0 mi NE 8.1 mph 16.1 mph N/A   Clear
1:54 PM 60.8 °F - 41.0 °F 48% 30.29 in 10.0 mi NNE 6.9 mph - N/A   Clear
2:15 PM 60.8 °F - 42.8 °F 52% 30.29 in 10.0 mi NE 6.9 mph - N/A   Clear
2:34 PM 62.6 °F - 42.8 °F 48% 30.29 in 10.0 mi NE 6.9 mph - N/A   Clear
2:54 PM 62.6 °F - 42.8 °F 48% 30.29 in 10.0 mi NNE 9.2 mph - N/A   Clear
3:15 PM 62.6 °F - 41.0 °F 45% 30.29 in 10.0 mi NE 5.8 mph - N/A   Clear
3:34 PM 62.6 °F - 41.0 °F 45% 30.29 in 10.0 mi North 3.5 mph - N/A   Clear
3:54 PM 64.4 °F - 42.8 °F 45% 30.29 in 10.0 mi NE 6.9 mph - N/A   Clear
4:15 PM 64.4 °F - 41.0 °F 42% 30.29 in 10.0 mi NE 6.9 mph - N/A   Clear
4:34 PM 64.4 °F - 39.2 °F 40% 30.29 in 10.0 mi NNE 8.1 mph - N/A   Clear
4:54 PM 64.4 °F - 39.2 °F 40% 30.29 in 10.0 mi NNE 4.6 mph - N/A   Clear
5:14 PM 64.4 °F - 41.0 °F 42% 30.29 in 10.0 mi NE 6.9 mph - N/A   Clear
5:34 PM 64.4 °F - 39.2 °F 40% 30.29 in 10.0 mi NE 8.1 mph - N/A   Clear
5:55 PM 64.4 °F - 41.0 °F 42% 30.29 in 10.0 mi NE 4.6 mph - N/A   Clear
6:14 PM 64.4 °F - 39.2 °F 40% 30.29 in 10.0 mi NE 4.6 mph - N/A   Clear
6:34 PM 62.6 °F - 39.2 °F 42% 30.29 in 10.0 mi NE 6.9 mph - N/A   Clear
6:55 PM 62.6 °F - 39.2 °F 42% 30.29 in 10.0 mi NE 5.8 mph - N/A   Clear
7:14 PM 60.8 °F - 39.2 °F 45% 30.29 in 10.0 mi ENE 3.5 mph - N/A   Clear
7:34 PM 59.0 °F - 39.2 °F 48% 30.29 in 10.0 mi ENE 3.5 mph - N/A   Clear
7:55 PM 57.2 °F - 39.2 °F 51% 30.30 in 10.0 mi ENE 3.5 mph - N/A   Clear
8:14 PM 57.2 °F - 39.2 °F 51% 30.31 in 10.0 mi ENE 4.6 mph - N/A   Clear
8:34 PM 55.4 °F - 37.4 °F 51% 30.31 in 10.0 mi ENE 5.8 mph - N/A   Clear
8:55 PM 55.4 °F - 37.4 °F 51% 30.31 in 10.0 mi East 6.9 mph - N/A   Clear
9:14 PM 53.6 °F - 37.4 °F 54% 30.31 in 10.0 mi East 4.6 mph - N/A   Clear
9:34 PM 53.6 °F - 37.4 °F 54% 30.32 in 10.0 mi East 5.8 mph - N/A   Clear
9:55 PM 53.6 °F - 37.4 °F 54% 30.32 in 10.0 mi East 6.9 mph - N/A   Clear
10:14 PM 51.8 °F - 37.4 °F 58% 30.32 in 10.0 mi East 5.8 mph - N/A   Clear
10:34 PM 51.8 °F - 39.2 °F 62% 30.32 in 10.0 mi East 8.1 mph - N/A   Clear
10:55 PM 51.8 °F - 39.2 °F 62% 30.33 in 10.0 mi East 5.8 mph - N/A   Clear
11:14 PM 51.8 °F - 39.2 °F 62% 30.33 in 10.0 mi ESE 6.9 mph - N/A   Clear
11:34 PM 51.8 °F - 39.2 °F 62% 30.33 in 10.0 mi ESE 6.9 mph - N/A   Clear
11:55 PM 50.0 °F - 39.2 °F 66% 30.34 in 10.0 mi ESE 6.9 mph - N/A   Clear